Anaktuvuk Pass, AK

12:53 PM AKST on January 17, 2017 (GMT -0900)
Anaktuvuk Pass

Weather History for PAKP - September, 2013

Change the Weather History Date:

Tuesday, September 3, 2013

  Actual Average Record
Temperature  
Mean Temperature 43 °F -  
Max Temperature 51 °F 45 °F 57 °F (2006)
Min Temperature 35 °F 31 °F 21 °F (2014)
Degree Days  
Heating Degree Days 22    
Moisture  
Dew Point 33 °F    
Average Humidity 69    
Maximum Humidity 81    
Minimum Humidity 54    
Precipitation  
Precipitation 0.00 in - - ()
Sea Level Pressure  
Sea Level Pressure 29.35 in    
Wind  
Wind Speed 9 mph (SSW)    
Max Wind Speed 17 mph    
Max Gust Speed 22 mph    
Visibility 10 miles    
Events      
Averages and records for this station are not official NWS values.
T = Trace of Precipitation, MM = Missing Value Source: NWS Daily Summary

Daily Weather History Graph

Daily Weather History Graph

Search for Another Location

Airport or City:

Trip Planner

Search our weather history database for the weather conditions in past years. The results will help you decide how hot, cold, wet, or windy it might be!

Date:

Astronomy

Sep. 03, 2013 Rise Set
Actual Time 6:41 AM AKDT 9:28 PM AKDT
Civil Twilight 5:37 AM AKDT 10:31 PM AKDT
Nautical Twilight 3:56 AM AKDT 12:08 AM AKDT
Astronomical Twilight Sun does not rise Sun does not rise
Moon 4:44 AM AKDT (9/3) 8:23 PM AKDT (9/3)
Length of Visible Light 16h 54m
Length of Day
14h 46m
Waning Crescent, 3% of the Moon is Illuminated
Sep 3
Waning Crescent
Sep 5
New
Sep 12
First Quarter
Sep 19
Full
Sep 26
Last Quarter

Hourly Weather History & Observations

Time (AKDT) Temp. Windchill Dew Point Humidity Pressure Visibility Wind Dir Wind Speed Gust Speed Precip Events Conditions
12:16 AM 37.4 °F 31.4 °F 28.4 °F 70% 29.43 in 10.0 mi SW 8.1 mph - N/A   Mostly Cloudy
12:36 AM 37.4 °F 32.1 °F 28.4 °F 70% 29.43 in 10.0 mi SW 6.9 mph - N/A   Overcast
12:56 AM 35.6 °F 30.7 °F 28.4 °F 75% 29.42 in 10.0 mi SW 5.8 mph - N/A   Overcast
1:16 AM 35.6 °F 29.9 °F 28.4 °F 75% 29.42 in 10.0 mi SW 6.9 mph - N/A   Overcast
1:36 AM 35.6 °F 28.6 °F 30.2 °F 81% 29.42 in 10.0 mi SW 9.2 mph - N/A   Overcast
1:56 AM 37.4 °F 32.1 °F 30.2 °F 75% 29.42 in 10.0 mi South 6.9 mph 17.3 mph N/A   Mostly Cloudy
2:16 AM 37.4 °F 31.4 °F 30.2 °F 75% 29.42 in 10.0 mi South 8.1 mph - N/A   Overcast
2:36 AM 37.4 °F 31.4 °F 28.4 °F 70% 29.42 in 10.0 mi South 8.1 mph - N/A   Mostly Cloudy
2:56 AM 37.4 °F 30.8 °F 30.2 °F 75% 29.42 in 10.0 mi SSW 9.2 mph - N/A   Mostly Cloudy
3:16 AM 37.4 °F 32.1 °F 28.4 °F 70% 29.42 in 10.0 mi SSE 6.9 mph - N/A   Overcast
3:36 AM 37.4 °F 30.3 °F 28.4 °F 70% 29.42 in 10.0 mi SW 10.4 mph - N/A   Overcast
3:56 AM 37.4 °F 31.4 °F 30.2 °F 75% 29.41 in 10.0 mi South 8.1 mph - N/A   Overcast
4:16 AM 37.4 °F - 30.2 °F 75% 29.40 in 10.0 mi Calm Calm - N/A   Overcast
4:36 AM 37.4 °F 32.1 °F 30.2 °F 75% 29.40 in 10.0 mi SW 6.9 mph - N/A   Mostly Cloudy
4:56 AM 37.4 °F 29.8 °F 30.2 °F 75% 29.39 in 10.0 mi SW 11.5 mph - N/A   Overcast
5:16 AM 37.4 °F 29.3 °F 30.2 °F 75% 29.39 in 10.0 mi WSW 12.7 mph 18.4 mph N/A   Overcast
5:36 AM 37.4 °F 30.3 °F 30.2 °F 75% 29.39 in 10.0 mi SW 10.4 mph - N/A   Overcast
5:56 AM 37.4 °F 30.8 °F 30.2 °F 75% 29.39 in 10.0 mi SW 9.2 mph 16.1 mph N/A   Mostly Cloudy
6:16 AM 37.4 °F 29.8 °F 30.2 °F 75% 29.38 in 10.0 mi SW 11.5 mph - N/A   Mostly Cloudy
6:36 AM 37.4 °F 29.8 °F 30.2 °F 75% 29.38 in 10.0 mi SW 11.5 mph - N/A   Overcast
6:56 AM 37.4 °F 29.8 °F 30.2 °F 75% 29.38 in 10.0 mi SW 11.5 mph 17.3 mph N/A   Overcast
7:16 AM 37.4 °F 29.8 °F 30.2 °F 75% 29.38 in 10.0 mi SW 11.5 mph 17.3 mph N/A   Overcast
7:36 AM 37.4 °F 29.8 °F 30.2 °F 75% 29.38 in 10.0 mi SW 11.5 mph 17.3 mph N/A   Overcast
7:56 AM 37.4 °F 29.8 °F 30.2 °F 75% 29.38 in 10.0 mi WSW 11.5 mph 18.4 mph N/A   Overcast
8:16 AM 39.2 °F 32.0 °F 30.2 °F 70% 29.38 in 10.0 mi SW 11.5 mph - N/A   Overcast
8:36 AM 39.2 °F 34.2 °F 30.2 °F 70% 29.38 in 10.0 mi South 6.9 mph - N/A   Overcast
8:56 AM 37.4 °F 31.4 °F 30.2 °F 75% 29.38 in 10.0 mi SSE 8.1 mph - N/A   Overcast
9:16 AM 39.2 °F 34.2 °F 30.2 °F 70% 29.38 in 10.0 mi SE 6.9 mph - N/A   Overcast
9:36 AM 39.2 °F 33.6 °F 32.0 °F 75% 29.38 in 10.0 mi SSE 8.1 mph - N/A   Overcast
9:56 AM 41.0 °F 34.7 °F 33.8 °F 76% 29.37 in 10.0 mi South 10.4 mph - N/A   Overcast
10:16 AM 41.0 °F 35.2 °F 33.8 °F 76% 29.37 in 10.0 mi SSW 9.2 mph - N/A   Overcast
10:36 AM 42.8 °F 36.2 °F 33.8 °F 70% 29.37 in 10.0 mi South 12.7 mph - N/A   Overcast
10:56 AM 42.8 °F 37.5 °F 33.8 °F 70% 29.37 in 10.0 mi SW 9.2 mph - N/A   Overcast
11:16 AM 42.8 °F 37.5 °F 33.8 °F 70% 29.36 in 10.0 mi WSW 9.2 mph - N/A   Overcast
11:36 AM 42.8 °F 38.6 °F 33.8 °F 70% 29.37 in 10.0 mi South 6.9 mph - N/A   Overcast
11:56 AM 42.8 °F 36.2 °F 33.8 °F 70% 29.36 in 10.0 mi SSW 12.7 mph - N/A   Overcast
12:16 PM 42.8 °F 38.0 °F 33.8 °F 70% 29.36 in 10.0 mi SSW 8.1 mph - N/A   Overcast
12:36 PM 42.8 °F 36.6 °F 33.8 °F 70% 29.36 in 10.0 mi South 11.5 mph - N/A   Overcast
12:56 PM 42.8 °F 37.0 °F 33.8 °F 70% 29.35 in 10.0 mi South 10.4 mph - N/A   Overcast
1:16 PM 44.6 °F 38.8 °F 35.6 °F 71% 29.34 in 10.0 mi South 11.5 mph - N/A   Overcast
1:36 PM 46.4 °F 40.7 °F 35.6 °F 66% 29.34 in 10.0 mi SW 12.7 mph - N/A   Mostly Cloudy
1:56 PM 48.2 °F - 35.6 °F 62% 29.33 in 10.0 mi SSW 12.7 mph 18.4 mph N/A   Mostly Cloudy
2:16 PM 48.2 °F - 35.6 °F 62% 29.33 in 10.0 mi SSW 13.8 mph - N/A   Mostly Cloudy
2:36 PM 48.2 °F - 35.6 °F 62% 29.33 in 10.0 mi SW 16.1 mph 21.9 mph N/A   Mostly Cloudy
2:56 PM 48.2 °F - 35.6 °F 62% 29.33 in 10.0 mi SSW 17.3 mph 21.9 mph N/A   Scattered Clouds
3:16 PM 48.2 °F - 35.6 °F 62% 29.33 in 10.0 mi SSW 16.1 mph 20.7 mph N/A   Partly Cloudy
3:36 PM 50.0 °F - 35.6 °F 58% 29.32 in 10.0 mi SSW 10.4 mph - N/A   Clear
3:56 PM 50.0 °F - 35.6 °F 58% 29.32 in 10.0 mi SSW 11.5 mph 16.1 mph N/A   Clear
4:16 PM 50.0 °F - 35.6 °F 58% 29.31 in 10.0 mi SSW 11.5 mph - N/A   Clear
4:36 PM 51.8 °F - 35.6 °F 54% 29.31 in 10.0 mi SSW 11.5 mph 17.3 mph N/A   Clear
4:56 PM 51.8 °F - 35.6 °F 54% 29.31 in 10.0 mi SSW 10.4 mph 16.1 mph N/A   Clear
5:16 PM 50.0 °F - 35.6 °F 58% 29.30 in 10.0 mi SSW 10.4 mph - N/A   Clear
5:36 PM 51.8 °F - 35.6 °F 54% 29.29 in 10.0 mi SW 9.2 mph - N/A   Clear
5:56 PM 51.8 °F - 35.6 °F 54% 29.29 in 10.0 mi SSW 9.2 mph - N/A   Clear
6:16 PM 51.8 °F - 35.6 °F 54% 29.28 in 10.0 mi SSW 6.9 mph - N/A   Clear
6:36 PM 51.8 °F - 35.6 °F 54% 29.28 in 10.0 mi South 9.2 mph - N/A   Clear
6:56 PM 50.0 °F - 35.6 °F 58% 29.28 in 10.0 mi SSW 8.1 mph - N/A   Clear
7:16 PM 48.2 °F - 35.6 °F 62% 29.28 in 10.0 mi SSW 8.1 mph - N/A   Clear
7:36 PM 48.2 °F - 35.6 °F 62% 29.28 in 10.0 mi SSW 6.9 mph - N/A   Clear
7:56 PM 46.4 °F 42.9 °F 35.6 °F 66% 29.27 in 10.0 mi South 6.9 mph - N/A   Mostly Cloudy
8:16 PM 46.4 °F 44.3 °F 35.6 °F 66% 29.27 in 10.0 mi South 4.6 mph - N/A   Mostly Cloudy
8:36 PM 46.4 °F - 35.6 °F 66% 29.28 in 10.0 mi Calm Calm - N/A   Mostly Cloudy
8:56 PM 46.4 °F 44.3 °F 35.6 °F 66% 29.27 in 10.0 mi ENE 4.6 mph - N/A   Overcast
9:16 PM 44.6 °F 42.2 °F 35.6 °F 71% 29.27 in 10.0 mi ENE 4.6 mph - N/A   Mostly Cloudy
9:36 PM 44.6 °F 42.2 °F 37.4 °F 76% 29.28 in 10.0 mi ENE 4.6 mph - N/A   Mostly Cloudy
9:56 PM 44.6 °F 40.7 °F 37.4 °F 76% 29.28 in 10.0 mi NE 6.9 mph - N/A   Overcast
10:16 PM 44.6 °F 41.4 °F 35.6 °F 71% 29.29 in 10.0 mi NE 5.8 mph - N/A   Overcast
10:36 PM 42.8 °F 40.1 °F 35.6 °F 76% 29.29 in 10.0 mi NNE 4.6 mph - N/A   Overcast
10:56 PM 42.8 °F 39.3 °F 35.6 °F 76% 29.29 in 7.0 mi NNE 5.8 mph - N/A   Overcast
11:16 PM 42.8 °F 39.3 °F 35.6 °F 76% 29.29 in 1.2 mi NE 5.8 mph - N/A   Overcast
11:36 PM 42.8 °F 39.3 °F 35.6 °F 76% 29.29 in 0.5 mi NE 5.8 mph - N/A   Overcast
11:56 PM 41.0 °F 35.8 °F 35.6 °F 81% 29.29 in 0.5 mi NE 8.1 mph - N/A   Overcast